EW5206 Weather Reports


Display with metric or nautical units.
time (UTC)temp
F
wind
direction
speed
MPH
gust
MPH
rain 1hr
in
rain 24hr
in
rain mn
in
humidity
%
barometer
mb
20260505220003 73 0.0 0.0 0.00 0.00 0.00 35 1010.6
20260505214505 74 0.0 0.0 0.00 0.00 0.00 33 1010.6
20260505213002 74 0.0 0.0 0.00 0.00 0.00 33 1010.5
20260505211601 74 0.0 0.0 0.00 0.00 0.00 34 1010.6
20260505210100 75 0.0 0.0 0.00 0.00 0.00 33 1010.8
20260505204607 75 0.0 0.0 0.00 0.00 0.00 31 1010.7
20260505203116 75 0.0 0.0 0.00 0.00 0.00 32 1010.9
20260505201558 76 0.0 0.0 0.00 0.00 0.00 31 1011.0
20260505200100 76 0.0 0.0 0.00 0.00 0.00 31 1011.0
20260505194607 76 0.0 0.0 0.00 0.00 0.00 31 1011.0
20260505193054 77 0.0 0.0 0.00 0.00 0.00 32 1011.2
20260505191552 78 0.0 0.0 0.00 0.00 0.00 33 1011.2
20260505190052 79 0.0 0.0 0.00 0.00 0.00 31 1011.3
20260505184549 79 0.0 0.0 0.00 0.00 0.00 30 1011.5
20260505183057 79 0.0 0.0 0.00 0.00 0.00 30 1011.9
20260505181545 79 0.0 0.0 0.00 0.00 0.00 32 1012.0
20260505180046 79 0.0 0.0 0.00 0.00 0.00 31 1012.2
20260505174548 80 0.0 0.0 0.00 0.00 0.00 30 1012.3
20260505173047 80 0.0 0.0 0.00 0.00 0.00 31 1012.4
20260505171541 81 0.0 0.0 0.00 0.00 0.00 29 1012.7
20260505170041 81 0.0 0.0 0.00 0.00 0.00 30 1013.0
20260505164550 82 0.0 0.0 0.00 0.00 0.00 30 1013.2
20260505163048 82 0.0 0.0 0.00 0.00 0.00 29 1013.2
20260505161543 83 0.0 0.0 0.00 0.00 0.00 28 1013.5
20260505153048 85 0.0 0.0 0.00 0.00 0.00 30 1014.0
20260505151542 86 0.0 0.0 0.00 0.00 0.00 29 1014.1
20260505124504 67 0.0 0.0 0.00 0.00 0.00 51 1014.3
20260505123106 63 0.0 0.0 0.00 0.00 0.00 58 1014.2
20260505121557 58 0.0 0.0 0.00 0.00 0.00 71 1014.2
20260505120058 55 0.0 0.0 0.00 0.00 0.00 68 1014.1
20260505114558 54 0.0 0.0 0.00 0.00 0.00 70 1014.1
20260505113100 53 0.0 0.0 0.00 0.00 0.00 70 1014.2
20260505111557 53 0.0 0.0 0.00 0.00 0.00 70 1014.0
20260505101546 53 0.0 0.0 0.00 0.00 0.00 68 1013.3
20260505100050 53 0.0 0.0 0.00 0.00 0.00 68 1013.2
20260505094542 54 0.0 0.0 0.00 0.00 0.00 67 1013.4
20260505093042 54 0.0 0.0 0.00 0.00 0.00 66 1013.5
20260505091551 54 0.0 0.0 0.00 0.00 0.00 65 1013.2
20260505090051 54 0.0 0.0 0.00 0.00 0.00 65 1013.1
20260505084537 55 0.0 0.0 0.00 0.00 0.00 64 1013.2
20260505083041 55 0.0 0.0 0.00 0.00 0.00 63 1013.4
20260505081548 55 0.0 0.0 0.00 0.00 0.00 63 1013.1
20260505080038 56 0.0 0.0 0.00 0.00 0.00 62 1013.0
20260505074526 56 0.0 0.0 0.00 0.00 0.00 62 1012.9
20260505073024 56 0.0 0.0 0.00 0.00 0.00 61 1012.8
20260505071527 56 0.0 0.0 0.00 0.00 0.00 60 1012.7
20260505070026 57 0.0 0.0 0.00 0.00 0.00 59 1012.6
20260505064520 57 0.0 0.0 0.00 0.00 0.00 59 1012.6
20260505063023 57 0.0 0.0 0.00 0.00 0.00 59 1012.6
20260505061526 57 0.0 0.0 0.00 0.00 0.00 60 1012.5
20260505060019 57 0.0 0.0 0.00 0.00 0.00 61 1012.5
20260505054521 57 0.0 0.0 0.00 0.00 0.00 61 1012.5
20260505053014 57 0.0 0.0 0.00 0.00 0.00 61 1012.6
20260505051511 58 0.0 0.0 0.00 0.00 0.00 60 1012.5
20260505041503 60 0.0 0.0 0.00 0.00 0.00 58 1012.5
20260505034559 61 0.0 0.0 0.00 0.00 0.00 56 1012.6
20260505033100 61 0.0 0.0 0.00 0.00 0.00 57 1012.6
20260505031613 61 0.0 0.0 0.00 0.00 0.00 56 1012.9
20260505030058 62 0.0 0.0 0.00 0.00 0.00 55 1012.7
20260505024609 62 0.0 0.0 0.00 0.00 0.00 56 1013.0
20260505023057 63 0.0 0.0 0.00 0.00 0.00 55 1012.9
20260505021612 63 0.0 0.0 0.00 0.00 0.00 54 1013.0
20260505020056 63 0.0 0.0 0.00 0.00 0.00 53 1013.0
20260505014555 64 0.0 0.0 0.00 0.00 0.00 53 1013.1
20260505013057 64 0.0 0.0 0.00 0.00 0.00 52 1012.9
20260505011557 64 0.0 0.0 0.00 0.00 0.00 51 1012.8
20260505010055 65 0.0 0.0 0.00 0.00 0.00 52 1012.6
20260505004554 65 0.0 0.0 0.00 0.00 0.00 51 1012.4
20260505003053 66 0.0 0.0 0.00 0.00 0.00 49 1012.2
20260505001553 68 0.0 0.0 0.00 0.00 0.00 48 1012.1
20260505000056 69 0.0 0.0 0.00 0.00 0.00 47 1011.9
20260504234552 70 0.0 0.0 0.00 0.00 0.00 45 1012.0
20260504233059 70 0.0 0.0 0.00 0.00 0.00 44 1012.0
20260504231551 70 0.0 0.0 0.00 0.00 0.00 44 1011.9
20260504230052 71 0.0 0.0 0.00 0.00 0.00 42 1011.9
20260504224549 71 0.0 0.0 0.00 0.00 0.00 41 1011.9
20260504223054 71 0.0 0.0 0.00 0.00 0.00 42 1011.9
20260504221553 71 0.0 0.0 0.00 0.00 0.00 43 1011.9